EW9532 Weather Reports


time (UTC)temp
C
wind
direction
speed
KPH
gust
KPH
rain 1hr
cm
rain 24hr
cm
rain mn
cm
humidity
%
barometer
mb
20240527180403 35 7 3.2 9.7 0.00 0.00 0.00 66 1010.3
20240527180154 35 271 3.2 9.7 0.00 0.00 0.00 65 1010.5
20240527175402 35 29 3.2 9.7 0.00 0.00 0.00 65 1010.8
20240527174902 35 3 6.4 9.7 0.00 0.00 0.00 66 1010.6
20240527174403 35 296 3.2 9.7 0.00 0.00 0.00 65 1010.6
20240527173903 34 322 3.2 9.7 0.00 0.00 0.00 68 1010.6
20240527173657 34 17 3.2 8.0 0.00 0.00 0.00 68 1010.7
20240527172904 33 353 4.8 11.3 0.00 0.00 0.00 68 1010.6
20240527172405 34 234 4.8 11.3 0.00 0.00 0.00 69 1010.7
20240527171902 34 44 4.8 8.0 0.00 0.00 0.00 69 1010.7
20240527171403 33 274 1.6 8.0 0.00 0.00 0.00 70 1010.9
20240527170904 33 256 4.8 8.0 0.00 0.00 0.00 70 1010.8
20240527170402 33 230 4.8 8.0 0.00 0.00 0.00 70 1011.0
20240527165903 33 227 3.2 6.4 0.00 0.00 0.00 71 1010.9
20240527165402 33 207 3.2 9.7 0.00 0.00 0.00 72 1011.1
20240527165152 33 181 3.2 12.9 0.00 0.00 0.00 72 1010.9
20240527164400 33 188 6.4 12.9 0.00 0.00 0.00 72 1010.9
20240527164155 32 143 3.2 9.7 0.00 0.00 0.00 73 1011.1
20240527163404 32 340 3.2 9.7 0.00 0.00 0.00 73 1011.2
20240527162903 32 29 3.2 8.0 0.00 0.00 0.00 73 1011.2
20240527162403 32 220 4.8 8.0 0.00 0.00 0.00 74 1011.2
20240527161859 32 171 3.2 9.7 0.00 0.00 0.00 74 1011.1
20240527161356 32 146 3.2 9.7 0.00 0.00 0.00 74 1011.0
20240527160853 32 92 4.8 9.7 0.00 0.00 0.00 75 1010.9
20240527160349 32 340 3.2 9.7 0.00 0.00 0.00 76 1010.9
20240527160134 32 233 3.2 9.7 0.00 0.00 0.00 75 1010.9
20240527155341 32 83 3.2 8.0 0.00 0.00 0.00 76 1010.8
20240527154837 32 165 4.8 8.0 0.00 0.00 0.00 76 1010.8
20240527154330 31 132 4.8 8.0 0.00 0.00 0.00 77 1010.8
20240527153835 31 276 6.4 8.0 0.00 0.00 0.00 78 1010.8
20240527153729 31 122 4.8 8.0 0.00 0.00 0.00 78 1010.8
20240527153230 31 161 4.8 8.0 0.00 0.00 0.00 78 1010.8
20240527152804 31 86 3.2 8.0 0.00 0.00 0.00 79 1010.8
20240527151733 31 28 4.8 11.3 0.00 0.00 0.00 80 1010.8
20240527151521 31 338 4.8 11.3 0.00 0.00 0.00 80 1010.6
20240527150732 31 34 3.2 11.3 0.00 0.00 0.00 80 1010.7
20240527150228 31 280 3.2 11.3 0.00 0.00 0.00 80 1010.6
20240527145723 31 70 6.4 9.7 0.00 0.00 0.00 81 1010.5
20240527145224 30 171 6.4 9.7 0.00 0.00 0.00 81 1010.5
20240527144723 30 214 4.8 9.7 0.00 0.00 0.00 82 1010.4
20240527144219 30 20 4.8 9.7 0.00 0.00 0.00 82 1010.5
20240527143716 30 356 4.8 9.7 0.00 0.00 0.00 82 1010.3
20240527143215 30 250 6.4 9.7 0.00 0.00 0.00 83 1010.3
20240527142711 30 211 4.8 9.7 0.00 0.00 0.00 83 1010.6
20240527142207 30 42 3.2 8.0 0.00 0.00 0.00 83 1010.5
20240527141704 30 129 3.2 9.7 0.00 0.00 0.00 83 1010.3
20240527141454 30 272 3.2 9.7 0.00 0.00 0.00 84 1010.2
20240527140954 30 289 4.8 8.0 0.00 0.00 0.00 84 1009.9
20240527140203 30 174 4.8 8.0 0.00 0.00 0.00 84 1009.9
20240527135704 30 306 3.2 9.7 0.00 0.00 0.00 85 1009.9
20240527135200 29 123 3.2 11.3 0.00 0.00 0.00 85 1009.7
20240527134702 29 243 3.2 11.3 0.00 0.00 0.00 85 1009.8
20240527134204 29 45 4.8 8.0 0.00 0.00 0.00 86 1009.8
20240527133704 29 188 4.8 9.7 0.00 0.00 0.00 86 1009.8
20240527133203 29 176 3.2 9.7 0.00 0.00 0.00 86 1009.8
20240527132955 29 306 3.2 8.0 0.00 0.00 0.00 86 1009.6
20240527132456 29 59 3.2 14.5 0.00 0.00 0.00 86 1009.3
20240527131703 29 344 6.4 14.5 0.00 0.00 0.00 87 1009.2
20240527131515 29 207 6.4 9.7 0.00 0.00 0.00 87 1009.1
20240527130704 29 240 4.8 9.7 0.00 0.00 0.00 87 1009.2
20240527130451 29 188 3.2 9.7 0.00 0.00 0.00 87 1009.1
20240527125704 29 227 4.8 8.0 0.00 0.00 0.00 87 1009.2
20240527125201 29 120 3.2 8.0 0.00 0.00 0.00 87 1009.0
20240527124954 29 160 4.8 8.0 0.00 0.00 0.00 87 1008.8
20240527124203 29 210 3.2 8.0 0.00 0.00 0.00 87 1008.7
20240527123954 29 186 3.2 11.3 0.00 0.00 0.00 87 1008.7
20240527123201 28 302 4.8 11.3 0.00 0.00 0.00 87 1008.6
20240527122955 28 216 4.8 12.9 0.00 0.00 0.00 88 1008.3
20240527122235 28 338 3.2 12.9 0.00 0.00 0.00 88 1008.3
20240527121204 28 143 3.2 8.0 0.00 0.00 0.00 88 1008.2
20240527120737 28 219 3.2 9.7 0.00 0.00 0.00 88 1008.1
20240527115703 28 283 4.8 11.3 0.00 0.00 0.00 88 1007.9
20240527115202 28 4 4.8 11.3 0.00 0.00 0.00 88 1007.8
20240527114700 28 23 3.2 9.7 0.00 0.00 0.00 88 1007.7
20240527114201 28 89 3.2 9.7 0.00 0.00 0.00 88 1007.6
20240527113702 28 32 1.6 6.4 0.00 0.00 0.00 88 1007.6
20240527113202 28 91 3.2 8.0 0.00 0.00 0.00 88 1007.6
20240527112700 28 137 1.6 8.0 0.00 0.00 0.00 88 1007.8
20240527112201 28 210 1.6 6.4 0.00 0.00 0.00 88 1007.8
20240527111701 28 155 3.2 6.4 0.00 0.00 0.00 88 1007.6
20240527111204 28 258 3.2 6.4 0.00 0.00 0.00 88 1007.5
20240527110704 28 60 3.2 8.0 0.00 0.00 0.00 88 1007.6
20240527110205 28 258 3.2 8.0 0.00 0.00 0.00 88 1007.5
20240527105704 28 147 3.2 8.0 0.00 0.00 0.00 88 1007.7
20240527105451 28 222 1.6 8.0 0.00 0.00 0.00 88 1007.6
20240527104700 28 188 3.2 8.0 0.00 0.00 0.00 88 1007.6
20240527104203 28 315 3.2 9.7 0.00 0.00 0.00 88 1007.4
20240527103956 28 13 3.2 9.7 0.00 0.00 0.00 88 1007.4
20240527103201 28 141 3.2 9.7 0.00 0.00 0.00 88 1007.5
20240527102702 28 229 1.6 9.7 0.00 0.00 0.00 88 1007.5
20240527102159 28 270 3.2 9.7 0.00 0.00 0.00 88 1007.5
20240527101656 28 37 4.8 8.0 0.00 0.00 0.00 88 1007.5
20240527101150 28 193 3.2 8.0 0.00 0.00 0.00 88 1007.4
20240527100718 28 247 3.2 8.0 0.00 0.00 0.00 88 1007.4
20240527095641 28 67 3.2 9.7 0.00 0.00 0.00 88 1007.3
20240527095138 28 306 3.2 9.7 0.00 0.00 0.00 88 1007.3
20240527094633 28 136 3.2 12.9 0.00 0.00 0.00 88 1007.5
20240527094144 28 253 3.2 12.9 0.00 0.00 0.00 88 1007.4
20240527093633 28 198 3.2 9.7 0.00 0.00 0.00 88 1007.5
20240527093133 28 276 4.8 8.0 0.00 0.00 0.00 88 1007.4
20240527092923 28 280 3.2 6.4 0.00 0.00 0.00 88 1007.4
20240527092133 28 242 3.2 6.4 0.00 0.00 0.00 88 1007.5
20240527091628 28 335 3.2 11.3 0.00 0.00 0.00 88 1007.3
20240527091129 28 307 4.8 11.3 0.00 0.00 0.00 87 1007.4
20240527090630 28 340 3.2 9.7 0.00 0.00 0.00 87 1007.3
20240527090129 28 116 3.2 9.7 0.00 0.00 0.00 87 1007.4
20240527085629 28 296 4.8 8.0 0.00 0.00 0.00 87 1007.3
20240527085129 28 261 3.2 12.9 0.00 0.00 0.00 87 1007.2
20240527084629 28 160 4.8 12.9 0.00 0.00 0.00 87 1007.3
20240527084128 28 321 3.2 6.4 0.00 0.00 0.00 87 1007.2
20240527083631 28 72 1.6 9.7 0.00 0.00 0.00 87 1007.1
20240527083130 28 169 4.8 9.7 0.00 0.00 0.00 87 1007.4
20240527082631 28 224 4.8 14.5 0.00 0.00 0.00 87 1007.4
20240527082131 28 137 4.8 14.5 0.00 0.00 0.00 87 1007.4
20240527081630 29 64 4.8 11.3 0.00 0.00 0.00 86 1007.5
20240527081130 29 44 3.2 11.3 0.00 0.00 0.00 86 1007.7
20240527080629 29 103 4.8 11.3 0.00 0.00 0.00 86 1007.7
20240527080129 29 221 4.8 11.3 0.00 0.00 0.00 86 1007.7
20240527075924 29 198 3.2 8.0 0.00 0.00 0.00 86 1007.8
20240527075129 29 198 3.2 11.3 0.00 0.00 0.00 86 1007.8
20240527074628 29 327 3.2 11.3 0.00 0.00 0.00 86 1007.7
20240527074130 29 144 4.8 11.3 0.00 0.00 0.00 86 1007.7
20240527073632 29 8 3.2 8.0 0.00 0.00 0.00 86 1007.8
20240527073131 29 166 1.6 6.4 0.00 0.00 0.00 85 1007.8
20240527072630 29 68 1.6 11.3 0.00 0.00 0.00 85 1007.8
20240527072424 29 224 4.8 11.3 0.00 0.00 0.00 85 1007.8
20240527071631 29 169 3.2 8.0 0.00 0.00 0.00 85 1007.9
20240527071128 29 215 3.2 9.7 0.00 0.00 0.00 85 1008.1
20240527070629 29 186 3.2 9.7 0.00 0.00 0.00 85 1007.9
20240527070129 29 88 3.2 12.9 0.00 0.00 0.00 85 1007.9
20240527065630 29 304 6.4 12.9 0.00 0.00 0.00 85 1007.8
20240527065420 28 304 3.2 9.7 0.00 0.00 0.00 85 1007.8
20240527064630 29 41 4.8 9.7 0.00 0.00 0.00 85 1007.9
20240527064129 29 333 3.2 8.0 0.00 0.00 0.00 85 1007.8
20240527063921 29 319 3.2 9.7 0.00 0.00 0.00 85 1007.8
20240527063131 28 189 4.8 12.9 0.00 0.00 0.00 85 1007.8
20240527062631 29 211 3.2 12.9 0.00 0.00 0.00 85 1007.7
20240527062130 29 120 4.8 8.0 0.00 0.00 0.00 85 1007.7
20240527061629 29 77 3.2 6.4 0.00 0.00 0.00 85 1007.7
20240527061207 29 268 4.8 8.0 0.00 0.00 0.00 85 1007.8
20240527060426 29 133 3.2 11.3 0.00 0.00 0.00 85 1007.9
20240527055630 29 267 6.4 11.3 0.00 0.00 0.00 84 1007.7
20240527055132 29 246 6.4 11.3 0.00 0.00 0.00 84 1007.7
20240527054630 29 329 6.4 9.7 0.00 0.00 0.00 84 1007.8
20240527054420 29 164 6.4 9.7 0.00 0.00 0.00 84 1007.8
20240527053631 29 224 6.4 12.9 0.00 0.00 0.00 84 1007.9
20240527053129 29 321 6.4 12.9 0.00 0.00 0.00 83 1007.9
20240527052631 29 203 4.8 11.3 0.00 0.00 0.00 83 1008.0
20240527052130 29 301 4.8 11.3 0.00 0.00 0.00 83 1008.2
20240527051629 29 165 3.2 6.4 0.00 0.00 0.00 82 1008.1
20240527051130 29 82 4.8 9.7 0.00 0.00 0.00 82 1008.1
20240527050629 29 107 3.2 9.7 0.00 0.00 0.00 82 1008.0
20240527050132 30 355 6.4 9.7 0.00 0.00 0.00 81 1008.1
20240527045634 30 230 3.2 9.7 0.00 0.00 0.00 81 1008.2
20240527045132 30 8 4.8 9.7 0.00 0.00 0.00 81 1008.1
20240527044634 30 217 6.4 11.3 0.00 0.00 0.00 80 1008.2
20240527044130 30 137 3.2 11.3 0.00 0.00 0.00 80 1008.1
20240527043629 30 309 3.2 11.3 0.00 0.00 0.00 80 1008.2
20240527043129 30 16 3.2 9.7 0.00 0.00 0.00 80 1008.2
20240527042630 30 186 6.4 12.9 0.00 0.00 0.00 79 1008.0
20240527042130 30 94 6.4 12.9 0.00 0.00 0.00 79 1008.0
20240527041704 30 102 6.4 11.3 0.00 0.00 0.00 78 1007.8
20240527040629 30 70 4.8 14.5 0.00 0.00 0.00 78 1007.7
20240527040131 30 63 6.4 16.1 0.00 0.00 0.00 78 1007.7
20240527035630 30 276 8.0 16.1 0.00 0.00 0.00 77 1007.6
20240527035130 30 243 4.8 9.7 0.00 0.00 0.00 77 1007.5
20240527034630 30 257 4.8 12.9 0.00 0.00 0.00 76 1007.5
20240527034131 30 333 6.4 16.1 0.00 0.00 0.00 76 1007.5
20240527033630 30 117 8.0 16.1 0.00 0.00 0.00 76 1007.6
20240527033131 30 306 3.2 12.9 0.00 0.00 0.00 76 1007.7
20240527032630 31 324 3.2 17.7 0.00 0.00 0.00 75 1007.5
20240527032132 31 219 8.0 17.7 0.00 0.00 0.00 75 1007.2
20240527031630 31 255 6.4 19.3 0.00 0.00 0.00 74 1007.2
20240527031130 31 203 6.4 19.3 0.00 0.00 0.00 74 1007.0
20240527030630 31 289 6.4 20.9 0.00 0.00 0.00 74 1006.6
20240527030131 31 107 9.7 20.9 0.00 0.00 0.00 74 1006.4
20240527025924 31 74 9.7 16.1 0.00 0.00 0.00 74 1006.5
20240527025129 31 203 8.0 17.7 0.00 0.00 0.00 73 1006.3
20240527024628 31 232 9.7 17.7 0.00 0.00 0.00 73 1006.4
20240527024129 31 77 8.0 20.9 0.00 0.00 0.00 73 1006.3
20240527023629 31 44 6.4 20.9 0.00 0.00 0.00 72 1006.3
20240527023134 31 53 9.7 19.3 0.00 0.00 0.00 72 1006.4
20240527022633 31 303 8.0 20.9 0.00 0.00 0.00 72 1006.5
20240527022132 31 18 8.0 20.9 0.00 0.00 0.00 71 1006.3
20240527021633 32 291 9.7 17.7 0.00 0.00 0.00 71 1006.1
20240527021424 32 310 9.7 19.3 0.00 0.00 0.00 71 1006.2
20240527020631 32 86 8.0 19.3 0.00 0.00 0.00 71 1006.1
20240527020132 32 145 6.4 16.1 0.00 0.00 0.00 70 1006.1
20240527015645 32 74 4.8 14.5 0.00 0.00 0.00 70 1006.0
20240527015132 32 301 9.7 14.5 0.00 0.00 0.00 70 1006.0
20240527014634 32 359 8.0 16.1 0.00 0.00 0.00 69 1006.0
20240527014133 32 77 8.0 16.1 0.00 0.00 0.00 69 1005.8
20240527013707 32 165 8.0 17.7 0.00 0.00 0.00 69 1005.7
20240527012941 33 136 9.7 14.5 0.00 0.00 0.00 69 1005.6
20240527012130 33 101 9.7 16.1 0.00 0.00 0.00 68 1005.4
20240527011629 33 272 8.0 19.3 0.00 0.00 0.00 68 1005.4
20240527011421 33 263 8.0 20.9 0.00 0.00 0.00 68 1005.5
20240527010629 33 191 9.7 20.9 0.00 0.00 0.00 67 1005.4
20240527010130 33 30 8.0 17.7 0.00 0.00 0.00 67 1005.4
20240527005716 34 74 8.0 19.3 0.00 0.00 0.00 66 1005.3
20240527004632 34 59 6.4 25.7 0.00 0.00 0.00 65 1005.0
20240527004132 35 76 6.4 25.7 0.00 0.00 0.00 64 1004.8
20240527003628 35 257 6.4 12.9 0.00 0.00 0.00 64 1004.7
20240527003130 35 176 6.4 17.7 0.00 0.00 0.00 64 1004.6
20240527002717 35 274 8.0 17.7 0.00 0.00 0.00 63 1004.6
20240527001806 35 14 6.4 14.5 0.00 0.00 0.00 62 1004.6
20240527000130 36 35 9.7 17.7 0.00 0.00 0.00 61 1004.4
20240526235631 36 304 9.7 20.9 0.00 0.00 0.00 61 1004.1
20240526235131 36 359 8.0 20.9 0.00 0.00 0.00 60 1004.3
20240526234630 36 224 3.2 22.5 0.00 0.00 0.00 60 1004.1
20240526234421 36 86 8.0 22.5 0.00 0.00 0.00 60 1004.1
20240526233629 36 162 8.0 14.5 0.00 0.00 0.00 59 1004.1
20240526233133 37 283 8.0 14.5 0.00 0.00 0.00 59 1003.9
20240526232921 37 33 8.0 14.5 0.00 0.00 0.00 59 1003.9
20240526232132 37 274 4.8 12.9 0.00 0.00 0.00 58 1003.8
20240526231922 37 105 3.2 12.9 0.00 0.00 0.00 58 1003.6
20240526231421 37 231 4.8 14.5 0.00 0.00 0.00 59 1003.8
20240526230920 37 340 8.0 14.5 0.00 0.00 0.00 59 1003.8
20240526230419 37 254 6.4 14.5 0.00 0.00 0.00 58 1003.8
20240526225921 37 153 8.0 12.9 0.00 0.00 0.00 58 1003.7
20240526225129 37 181 6.4 16.1 0.00 0.00 0.00 58 1003.7
20240526224631 37 239 8.0 16.1 0.00 0.00 0.00 58 1003.6
20240526224130 37 143 6.4 16.1 0.00 0.00 0.00 58 1003.7
20240526223628 37 359 8.0 16.1 0.00 0.00 0.00 58 1003.7
20240526223129 37 220 8.0 14.5 0.00 0.00 0.00 58 1003.7
20240526222630 37 12 9.7 14.5 0.00 0.00 0.00 58 1003.8
20240526222130 37 279 6.4 16.1 0.00 0.00 0.00 57 1003.7
20240526221628 38 43 6.4 16.1 0.00 0.00 0.00 57 1003.7
20240526221123 38 0 6.4 17.7 0.00 0.00 0.00 57 1003.7
20240526220618 38 209 9.7 17.7 0.00 0.00 0.00 56 1003.6
20240526220117 38 278 8.0 16.1 0.00 0.00 0.00 57 1003.8
20240526215908 38 82 6.4 17.7 0.00 0.00 0.00 57 1003.7
20240526215110 38 245 6.4 14.5 0.00 0.00 0.00 57 1003.7
20240526214612 38 276 4.8 0.0 0.00 0.00 0.00 57 1003.7
20240526213550 38 174 8.0 17.7 0.00 0.00 0.00 56 1003.7
20240526212602 38 352 8.0 0.0 0.00 0.00 0.00 56 1003.8
20240526212113 38 46 6.4 0.0 0.00 0.00 0.00 55 1003.6
20240526211511 38 86 6.4 8.0 0.00 0.00 0.00 56 1003.8
20240526211020 38 4 4.8 12.9 0.00 0.00 0.00 55 1003.6
20240526210804 38 240 4.8 14.5 0.00 0.00 0.00 55 1003.8
20240526210357 38 4 6.4 16.1 0.00 0.00 0.00 55 1003.9
20240526205305 38 333 8.0 20.9 0.00 0.00 0.00 55 1003.9
20240526204805 38 335 4.8 20.9 0.00 0.00 0.00 54 1004.0
20240526204641 38 356 6.4 22.5 0.00 0.00 0.00 55 1004.0
20240526203305 38 227 8.0 14.5 0.00 0.00 0.00 54 1003.9
20240526202804 38 278 4.8 14.5 0.00 0.00 0.00 55 1004.0
20240526202335 38 264 8.0 14.5 0.00 0.00 0.00 55 1004.1
20240526201555 38 202 6.4 17.7 0.00 0.00 0.00 54 1004.1
20240526200802 38 101 9.7 17.7 0.00 0.00 0.00 53 1004.1
20240526200302 38 258 11.3 19.3 0.00 0.00 0.00 53 1004.2
20240526195801 38 290 9.7 19.3 0.00 0.00 0.00 52 1004.2
20240526195554 39 255 8.0 14.5 0.00 0.00 0.00 52 1004.3
20240526194801 38 229 8.0 20.9 0.00 0.00 0.00 51 1004.3
20240526194302 38 183 6.4 20.9 0.00 0.00 0.00 52 1004.4
20240526194057 38 236 8.0 17.7 0.00 0.00 0.00 50 1004.5
20240526193556 38 58 6.4 14.5 0.00 0.00 0.00 51 1004.5
20240526192837 38 41 6.4 14.5 0.00 0.00 0.00 51 1004.6
20240526191802 38 307 9.7 19.3 0.00 0.00 0.00 52 1004.8
20240526191553 38 98 9.7 20.9 0.00 0.00 0.00 52 1004.8
20240526190803 38 330 11.3 20.9 0.00 0.00 0.00 53 1004.6
20240526190610 38 214 6.4 16.1 0.00 0.00 0.00 52 1004.8
20240526185803 38 290 8.0 16.1 0.00 0.00 0.00 53 1004.8
20240526185337 38 275 4.8 16.1 0.00 0.00 0.00 52 1004.9
20240526184339 38 310 4.8 16.1 0.00 0.00 0.00 53 1005.0
20240526183303 37 194 8.0 16.1 0.00 0.00 0.00 55 1005.2
20240526182805 37 214 4.8 20.9 0.00 0.00 0.00 55 1005.3
20240526182303 37 134 8.0 20.9 0.00 0.00 0.00 55 1005.3
20240526181802 37 81 4.8 14.5 0.00 0.00 0.00 54 1005.3
20240526181303 37 196 8.0 14.5 0.00 0.00 0.00 55 1005.3